TimePST,TemperatureF,Dew PointF,Humidity,Sea Level PressureIn,VisibilityMPH,Wind Direction,Wind SpeedMPH,Gust SpeedMPH,PrecipitationIn,Events,Conditions,WindDirDegrees,DateUTC
12:53 AM,33.1,25.0,72,29.84,-9999.0,Calm,Calm,-,N/A,,Unknown,0,2013-03-07 08:53:00
1:53 AM,32.0,25.0,75,29.83,-9999.0,Calm,Calm,-,N/A,,Unknown,0,2013-03-07 09:53:00
2:53 AM,30.9,23.0,72,29.83,-9999.0,NW,3.5,-,N/A,,Unknown,320,2013-03-07 10:53:00
3:53 AM,30.9,21.9,69,29.83,-9999.0,NNW,5.8,-,N/A,,Unknown,330,2013-03-07 11:53:00
4:53 AM,30.9,19.9,64,29.86,-9999.0,NNW,5.8,-,N/A,,Unknown,340,2013-03-07 12:53:00
5:53 AM,30.9,23.0,72,29.87,-9999.0,Calm,Calm,-,N/A,,Unknown,0,2013-03-07 13:53:00
6:53 AM,28.9,25.0,85,29.90,-9999.0,Calm,Calm,-,0.01,,Unknown,0,2013-03-07 14:53:00
7:53 AM,30.0,26.1,85,29.90,-9999.0,Calm,Calm,-,0.01,,Unknown,0,2013-03-07 15:53:00
8:53 AM,30.9,27.0,85,29.88,-9999.0,North,5.8,-,N/A,,Unknown,360,2013-03-07 16:53:00
9:53 AM,32.0,28.0,85,29.87,-9999.0,North,5.8,-,0.01,,Unknown,360,2013-03-07 17:53:00
10:53 AM,35.1,28.9,78,29.86,-9999.0,NNE,8.1,-,N/A,,Unknown,20,2013-03-07 18:53:00
11:53 AM,39.0,30.0,70,29.82,-9999.0,NNE,6.9,-,N/A,,Unknown,20,2013-03-07 19:53:00
12:53 PM,41.0,30.9,67,29.79,-9999.0,SE,12.7,-,N/A,,Unknown,130,2013-03-07 20:53:00
1:53 PM,41.0,30.9,67,29.76,-9999.0,SSE,12.7,-,N/A,,Unknown,160,2013-03-07 21:53:00
2:53 PM,42.1,30.9,65,29.76,-9999.0,SE,11.5,-,N/A,,Unknown,130,2013-03-07 22:53:00
3:53 PM,43.0,30.0,60,29.74,-9999.0,SE,13.8,-,N/A,,Unknown,130,2013-03-07 23:53:00
4:53 PM,39.9,30.0,68,29.76,-9999.0,WSW,12.7,-,N/A,,Unknown,240,2013-03-08 00:53:00
5:53 PM,37.9,30.0,73,29.78,-9999.0,West,4.6,-,N/A,,Unknown,260,2013-03-08 01:53:00
6:53 PM,36.0,30.9,82,29.81,-9999.0,NNE,8.1,-,N/A,,Unknown,20,2013-03-08 02:53:00
7:53 PM,34.0,30.9,89,29.83,-9999.0,North,5.8,-,N/A,,Unknown,350,2013-03-08 03:53:00
8:53 PM,33.1,30.9,92,29.83,-9999.0,North,8.1,-,N/A,,Unknown,10,2013-03-08 04:53:00
9:53 PM,33.1,30.9,92,29.82,-9999.0,NNE,6.9,-,N/A,,Unknown,30,2013-03-08 05:53:00
10:53 PM,32.0,30.0,92,29.81,-9999.0,ENE,4.6,-,N/A,,Unknown,60,2013-03-08 06:53:00
11:53 PM,32.0,30.0,92,29.78,-9999.0,NE,5.8,-,N/A,,Unknown,50,2013-03-08 07:53:00